User: anonymous   Login
Location: Vulcan
(50.4000°N, 113.2500°W)
Time: 05:09:33
(UTC-07:00)
Language:

Explorer 11/Cluster Stage 4 - Orbit

View from above orbital plane
View from above orbital plane
View from above satellite
View from above satellite

Ground track
Ground track

The orbit data is extracted from the following two-line orbital elements,

1   107U 61013A   19324.24214980  .00000663  00000-0  69654-4 0  9997
2   107  28.7900 288.5809 0546977 336.2202  21.3967 14.08856383936105
Epoch (UTC): 20 November 2019 05:48:41
Eccentricity: 0.0546977
inclination: 28.7900°
perigee height: 467 km
apogee height: 1259 km
right ascension of ascending node: 288.5809°
argument of perigee: 336.2202°
revolutions per day: 14.08856383
mean anomaly at epoch: 21.3967°
orbit number at epoch: 93610

The dashed part of the orbit path shows where the satellite is in the earth's shadow,  

DLR